Weather in Posyolok Imeni Tsyurupy

Russia / Moscow Oblast     55°29′34″N   38°38′33″E
temp.,
°C
wind,
m/s
gust,
m/s
humid.,
%
clouds,
%
prec.,
mm/h
press.,
hPa
HPBL,
m
9 march, tue
tue900:00−14nw24960 0.0 100988
03:00−16nw259711 0.0 1012103
06:00−17nnw379677 0.0 1013198
09:00−16nnw369156 0.0 1015294
12:00−12nnw358272 0.0 1016629
15:00−11nnw467985 0.1 1017837
18:00−14nnw3888100 0.1 1018514
21:00−18nnw399379 0.1 1021310
10 march, wed
wed1000:00−21nnw37960 0.0 1023189
03:00−23nnw37967 0.0 1024184
06:00−24nnw36970 0.0 1026177
09:00−22n36910 0.0 1028283
12:00−18n35819 0.0 1029502
15:00−15n357410 0.0 1029670
18:00−17nnw22860 0.0 103021
21:00−19nw23910 0.0 103147
11 march, thu
thu1100:00−20nw23920 0.0 103258
03:00−20nw239526 0.0 103367
06:00−21nw229635 0.0 103326
09:00−17nw249117 0.0 1034203
12:00−11nw237963 0.0 1033488
15:00−9w227681 0.0 1033699
18:00−12wsw2292100 0.0 103232
21:00−15sw229253 0.0 103320
12 march, fri
fri1200:00−17sw23930 0.0 103336
03:00−18sw23920 0.0 103356
06:00−19ssw23900 0.0 103376
09:00−16ssw36820 0.0 1033250
12:00−10s48740 0.0 1032437
15:00−8s59730 0.0 1030642
18:00−11s411830 0.0 1029468
21:00−14s513880 0.0 1029387
13 march, sat
sat1300:00−15s514870 0.0 1028417
03:00−14s514810 0.0 1026419
06:00−12s6167933 0.0 1024559
09:00−9s7149267 0.4 1022824
12:00−6s71391100 1.0 1021873
15:00−4s71291100 2.2 1020821
18:00−3ssw61295100 1.0 1019625
21:00−3ssw51194100 1.8 1019514